Change the Weather History Date:

Saturday, January 12, 2013

  Actual Average Record
Temperature  
Mean Temperature 30 °F -  
Max Temperature 36 °F 43 °F 52 °F (2002)
Min Temperature 24 °F 35 °F 17 °F (2007)
Degree Days  
Heating Degree Days 35    
Moisture  
Dew Point 24 °F    
Average Humidity 83    
Maximum Humidity 96    
Minimum Humidity 52    
Precipitation  
Precipitation 0.00 in - - ()
Sea Level Pressure  
Sea Level Pressure 30.40 in    
Wind  
Wind Speed 1 mph (North)    
Max Wind Speed 8 mph    
Max Gust Speed -    
Visibility 10 miles    
Events      
Averages and records for this station are not official NWS values.
T = Trace of Precipitation, MM = Missing Value Source: NWS Daily Summary

Daily Weather History Graph

Daily Weather History Graph

Search for Another Location

Airport or City:

Trip Planner

Search our weather history database for the weather conditions in past years. The results will help you decide how hot, cold, wet, or windy it might be!

Date:

Astronomy

Jan. 12, 2013 Rise Set
Actual Time 8:00 AM PST 4:40 PM PST
Civil Twilight 7:24 AM PST 5:16 PM PST
Nautical Twilight 6:45 AM PST 5:56 PM PST
Astronomical Twilight 6:07 AM PST 6:33 PM PST
Moon 8:14 AM PST (1/12) 6:27 PM PST (1/12)
Length of Visible Light 9h 51m
Length of Day
8h 40m
New Moon, 2% of the Moon is Illuminated
Jan 12
New Moon
Jan 18
First Quarter
Jan 26
Full
Feb 3
Last Quarter
Feb 9
New

Hourly Weather History & Observations

Time (PST) Temp. Windchill Dew Point Humidity Pressure Visibility Wind Dir Wind Speed Gust Speed Precip Events Conditions
12:53 AM 28.9 °F - 26.1 °F 89% 30.35 in 10.0 mi Calm Calm - N/A   Clear
1:53 AM 27.0 °F - 25.0 °F 92% 30.35 in 10.0 mi Calm Calm - N/A   Clear
2:53 AM 26.1 °F - 24.1 °F 92% 30.35 in 10.0 mi Calm Calm - N/A   Clear
3:53 AM 26.1 °F - 24.1 °F 92% 30.36 in 10.0 mi Calm Calm - N/A   Clear
4:53 AM 27.0 °F - 24.1 °F 89% 30.36 in 10.0 mi Calm Calm - N/A   Clear
5:53 AM 25.0 °F - 23.0 °F 92% 30.37 in 10.0 mi Calm Calm - N/A   Clear
6:53 AM 24.1 °F - 21.9 °F 91% 30.38 in 10.0 mi Calm Calm - N/A   Clear
7:53 AM 25.0 °F - 21.9 °F 88% 30.39 in 10.0 mi Calm Calm - N/A   Clear
8:53 AM 26.1 °F - 24.1 °F 92% 30.40 in 10.0 mi Calm Calm - N/A   Clear
9:53 AM 33.1 °F 30.0 °F 28.9 °F 85% 30.41 in 10.0 mi North 3.5 mph - N/A   Clear
10:53 AM 34.0 °F 28.8 °F 24.1 °F 67% 30.42 in 10.0 mi North 5.8 mph - N/A   Clear
11:53 AM 36.0 °F 30.3 °F 21.9 °F 57% 30.41 in 10.0 mi North 6.9 mph - N/A   Clear
12:53 PM 36.0 °F 29.6 °F 19.9 °F 52% 30.42 in 10.0 mi North 8.1 mph - N/A   Clear
1:53 PM 35.1 °F 28.6 °F 21.9 °F 59% 30.42 in 10.0 mi North 8.1 mph - N/A   Clear
2:53 PM 35.1 °F 30.1 °F 23.0 °F 61% 30.41 in 10.0 mi North 5.8 mph - N/A   Clear
4:53 PM 28.0 °F - 24.1 °F 85% 30.41 in 10.0 mi Calm Calm - N/A   Clear
5:53 PM 28.0 °F - 24.1 °F 85% 30.43 in 10.0 mi Calm Calm - N/A   Clear
6:53 PM 27.0 °F - 24.1 °F 89% 30.43 in 10.0 mi Calm Calm - N/A   Clear
7:53 PM 26.1 °F - 24.1 °F 92% 30.42 in 10.0 mi Calm Calm - N/A   Clear
8:53 PM 27.0 °F 23.0 °F 24.1 °F 89% 30.43 in 10.0 mi West 3.5 mph - N/A   Clear
9:53 PM 24.1 °F - 23.0 °F 96% 30.44 in 10.0 mi Calm Calm - N/A   Clear
10:53 PM 26.1 °F - 24.1 °F 92% 30.46 in 10.0 mi Calm Calm - N/A   Mostly Cloudy
11:53 PM 28.9 °F - 27.0 °F 92% 30.46 in 10.0 mi Calm Calm - N/A   Overcast